| time (UTC) | temp F | wind direction | speed knots | gust knots | rain 1hr in | rain 24hr in | rain mn in | humidity % | barometer mb |
| 20260905202139 | 60 | 225 | 0.9 | 1.7 | 0.00 | 0.00 | 0.00 | 81 | 1025.4 |
| 20260905201314 | 60 | 225 | 0.9 | 2.6 | 0.00 | 0.00 | 0.00 | 80 | 1025.3 |
| 20260905200120 | 61 | 248 | 0.9 | 1.7 | 0.00 | 0.00 | 0.00 | 80 | 1025.1 |
| 20260905195118 | 61 | 0.0 | 0.0 | 0.00 | 0.00 | 0.00 | 80 | 1025.0 | |
| 20260905194118 | 61 | 0.0 | 0.9 | 0.00 | 0.00 | 0.00 | 80 | 1025.0 | |
| 20260905193118 | 61 | 225 | 0.9 | 0.9 | 0.00 | 0.00 | 0.00 | 79 | 1025.0 |
| 20260905192131 | 62 | 0.0 | 0.9 | 0.00 | 0.00 | 0.00 | 78 | 1025.0 | |
| 20260905191120 | 62 | 0.0 | 0.0 | 0.00 | 0.00 | 0.00 | 77 | 1024.9 | |
| 20260905190118 | 62 | 0.0 | 0.0 | 0.00 | 0.00 | 0.00 | 77 | 1025.0 | |
| 20260905185120 | 63 | 0.0 | 0.9 | 0.00 | 0.00 | 0.00 | 75 | 1024.7 | |
| 20260905184151 | 63 | 0.0 | 0.0 | 0.00 | 0.00 | 0.00 | 74 | 1024.8 | |
| 20260905183118 | 64 | 0.0 | 0.0 | 0.00 | 0.00 | 0.00 | 73 | 1024.7 | |
| 20260905182141 | 64 | 0.0 | 0.9 | 0.00 | 0.00 | 0.00 | 72 | 1024.9 | |
| 20260905181141 | 65 | 0.0 | 0.9 | 0.00 | 0.00 | 0.00 | 72 | 1024.9 | |
| 20260905180140 | 65 | 0.0 | 0.9 | 0.00 | 0.00 | 0.00 | 71 | 1024.8 | |
| 20260905175603 | 66 | 338 | 0.9 | 1.7 | 0.00 | 0.00 | 0.00 | 71 | 1024.8 |
| 20260905165920 | 67 | 23 | 0.9 | 1.7 | 0.00 | 0.00 | 0.00 | 66 | 1024.5 |
| 20260905164920 | 67 | 248 | 0.9 | 1.7 | 0.00 | 0.00 | 0.00 | 66 | 1024.5 |
| 20260905163920 | 68 | 248 | 0.9 | 2.6 | 0.00 | 0.00 | 0.00 | 66 | 1024.4 |
| 20260905162941 | 68 | 293 | 1.7 | 3.5 | 0.00 | 0.00 | 0.00 | 65 | 1024.5 |
| 20260905161919 | 68 | 203 | 1.7 | 5.2 | 0.00 | 0.00 | 0.00 | 63 | 1024.6 |
| 20260905160920 | 68 | 293 | 2.6 | 6.1 | 0.00 | 0.00 | 0.00 | 63 | 1024.4 |
| 20260905155952 | 68 | 293 | 0.9 | 1.7 | 0.00 | 0.00 | 0.00 | 63 | 1024.5 |
| 20260905154930 | 69 | 180 | 2.6 | 5.2 | 0.00 | 0.00 | 0.00 | 63 | 1024.4 |
| 20260905153919 | 69 | 45 | 1.7 | 4.3 | 0.00 | 0.00 | 0.00 | 62 | 1024.5 |
| 20260905152919 | 69 | 293 | 1.7 | 2.6 | 0.00 | 0.00 | 0.00 | 63 | 1024.4 |
| 20260905151920 | 69 | 270 | 1.7 | 2.6 | 0.00 | 0.00 | 0.00 | 64 | 1024.4 |
| 20260905150919 | 69 | 270 | 0.9 | 1.7 | 0.00 | 0.00 | 0.00 | 62 | 1024.5 |
| 20260905145920 | 69 | 338 | 1.7 | 4.3 | 0.00 | 0.00 | 0.00 | 61 | 1024.4 |
| 20260905144930 | 69 | 293 | 1.7 | 3.5 | 0.00 | 0.00 | 0.00 | 61 | 1024.2 |
| 20260905143920 | 69 | 270 | 0.9 | 1.7 | 0.00 | 0.00 | 0.00 | 61 | 1024.1 |
| 20260905142919 | 70 | 270 | 3.5 | 7.0 | 0.00 | 0.00 | 0.00 | 59 | 1024.1 |
| 20260905141919 | 69 | 225 | 0.9 | 1.7 | 0.00 | 0.00 | 0.00 | 61 | 1024.1 |
| 20260905140941 | 69 | 315 | 1.7 | 2.6 | 0.00 | 0.00 | 0.00 | 61 | 1024.2 |
| 20260905135919 | 69 | 315 | 1.7 | 2.6 | 0.00 | 0.00 | 0.00 | 63 | 1024.1 |
| 20260905134941 | 70 | 180 | 2.6 | 5.2 | 0.00 | 0.00 | 0.00 | 60 | 1024.1 |
| 20260905133931 | 71 | 270 | 2.6 | 5.2 | 0.00 | 0.00 | 0.00 | 59 | 1024.1 |
| 20260905132919 | 71 | 338 | 0.9 | 1.7 | 0.00 | 0.00 | 0.00 | 59 | 1024.1 |
| 20260905131930 | 72 | 248 | 0.9 | 1.7 | 0.00 | 0.00 | 0.00 | 59 | 1024.0 |
| 20260905130919 | 71 | 270 | 1.7 | 2.6 | 0.00 | 0.00 | 0.00 | 60 | 1024.1 |
| 20260905125919 | 71 | 270 | 3.5 | 7.0 | 0.00 | 0.00 | 0.00 | 59 | 1024.1 |
| 20260905124920 | 71 | 248 | 2.6 | 6.1 | 0.00 | 0.00 | 0.00 | 60 | 1024.0 |
| 20260905123951 | 71 | 293 | 2.6 | 5.2 | 0.00 | 0.00 | 0.00 | 60 | 1023.9 |
| 20260905122919 | 71 | 293 | 3.5 | 7.0 | 0.00 | 0.00 | 0.00 | 59 | 1023.9 |
| 20260905121919 | 72 | 23 | 2.6 | 6.1 | 0.00 | 0.00 | 0.00 | 59 | 1023.6 |
| 20260905120919 | 71 | 270 | 1.7 | 3.5 | 0.00 | 0.00 | 0.00 | 59 | 1023.8 |
| 20260905115919 | 72 | 270 | 2.6 | 7.0 | 0.00 | 0.00 | 0.00 | 61 | 1023.6 |
| 20260905114919 | 71 | 270 | 3.5 | 9.6 | 0.00 | 0.00 | 0.00 | 61 | 1023.6 |
| 20260905113919 | 72 | 315 | 1.7 | 5.2 | 0.00 | 0.00 | 0.00 | 63 | 1023.5 |
| 20260905112919 | 71 | 270 | 1.7 | 3.5 | 0.00 | 0.00 | 0.00 | 62 | 1023.5 |
| 20260905111919 | 72 | 248 | 2.6 | 3.5 | 0.00 | 0.00 | 0.00 | 61 | 1023.4 |
| 20260905110939 | 71 | 270 | 3.5 | 7.0 | 0.00 | 0.00 | 0.00 | 62 | 1023.5 |
| 20260905105930 | 71 | 293 | 0.9 | 1.7 | 0.00 | 0.00 | 0.00 | 64 | 1023.3 |
| 20260905104950 | 71 | 293 | 3.5 | 5.2 | 0.00 | 0.00 | 0.00 | 64 | 1023.3 |
| 20260905103941 | 71 | 293 | 3.5 | 7.8 | 0.00 | 0.00 | 0.00 | 63 | 1023.2 |
| 20260905102939 | 71 | 293 | 2.6 | 5.2 | 0.00 | 0.00 | 0.00 | 64 | 1023.2 |
| 20260905101951 | 70 | 270 | 1.7 | 2.6 | 0.00 | 0.00 | 0.00 | 67 | 1023.1 |
| 20260905100952 | 69 | 270 | 2.6 | 5.2 | 0.00 | 0.00 | 0.00 | 67 | 1023.0 |
| 20260905095919 | 69 | 270 | 2.6 | 5.2 | 0.00 | 0.00 | 0.00 | 66 | 1023.0 |
| 20260905094930 | 69 | 225 | 3.5 | 7.8 | 0.00 | 0.00 | 0.00 | 67 | 1022.8 |
| 20260905093930 | 69 | 315 | 4.3 | 9.6 | 0.00 | 0.00 | 0.00 | 66 | 1022.7 |
| 20260905092919 | 69 | 270 | 1.7 | 2.6 | 0.00 | 0.00 | 0.00 | 69 | 1022.7 |
| 20260905091950 | 69 | 293 | 3.5 | 6.1 | 0.00 | 0.00 | 0.00 | 68 | 1022.6 |
| 20260905090919 | 68 | 293 | 1.7 | 4.3 | 0.00 | 0.00 | 0.00 | 70 | 1022.5 |
| 20260905090010 | 68 | 225 | 0.9 | 2.6 | 0.00 | 0.00 | 0.00 | 72 | 1022.5 |
| 20260905084919 | 67 | 248 | 0.9 | 2.6 | 0.00 | 0.00 | 0.00 | 75 | 1022.4 |
| 20260905083919 | 66 | 248 | 2.6 | 5.2 | 0.00 | 0.00 | 0.00 | 76 | 1022.3 |
| 20260905082930 | 66 | 293 | 2.6 | 7.0 | 0.00 | 0.00 | 0.00 | 77 | 1022.2 |
| 20260905082001 | 65 | 293 | 3.5 | 7.0 | 0.00 | 0.00 | 0.00 | 78 | 1022.1 |
| 20260905081135 | 65 | 293 | 2.6 | 4.3 | 0.00 | 0.00 | 0.00 | 79 | 1022.0 |
| 20260905080219 | 64 | 315 | 0.9 | 2.6 | 0.00 | 0.00 | 0.00 | 80 | 1021.9 |
| 20260905075219 | 64 | 293 | 4.3 | 8.7 | 0.00 | 0.00 | 0.00 | 83 | 1021.8 |
| 20260905074239 | 62 | 270 | 1.7 | 5.2 | 0.00 | 0.00 | 0.00 | 86 | 1021.7 |
| 20260905073240 | 61 | 270 | 0.9 | 1.7 | 0.00 | 0.00 | 0.00 | 88 | 1021.5 |
| 20260905072219 | 60 | 225 | 1.7 | 2.6 | 0.00 | 0.00 | 0.00 | 89 | 1021.5 |
| 20260905071219 | 60 | 270 | 0.9 | 0.9 | 0.00 | 0.00 | 0.00 | 90 | 1021.3 |
| 20260905070219 | 59 | 203 | 1.7 | 2.6 | 0.00 | 0.00 | 0.00 | 90 | 1021.4 |
| 20260905065219 | 59 | 270 | 0.9 | 1.7 | 0.00 | 0.00 | 0.00 | 90 | 1021.1 |
| 20260905064229 | 58 | 270 | 1.7 | 3.5 | 0.00 | 0.00 | 0.00 | 90 | 1021.1 |
| 20260905063219 | 58 | 270 | 0.9 | 0.9 | 0.00 | 0.00 | 0.00 | 90 | 1020.9 |
| 20260905062219 | 57 | 248 | 1.7 | 2.6 | 0.00 | 0.00 | 0.00 | 91 | 1020.7 |
| 20260905061239 | 57 | 248 | 0.9 | 0.9 | 0.00 | 0.00 | 0.00 | 90 | 1020.7 |
| 20260905060219 | 57 | 270 | 0.9 | 1.7 | 0.00 | 0.00 | 0.00 | 90 | 1020.6 |
| 20260905055218 | 57 | 203 | 0.9 | 1.7 | 0.00 | 0.00 | 0.00 | 90 | 1020.5 |
| 20260905054219 | 57 | 248 | 0.9 | 1.7 | 0.00 | 0.00 | 0.00 | 91 | 1020.6 |
| 20260905053240 | 57 | 270 | 1.7 | 2.6 | 0.00 | 0.00 | 0.00 | 91 | 1020.4 |
| 20260905052229 | 57 | 270 | 0.9 | 2.6 | 0.00 | 0.01 | 0.00 | 91 | 1020.3 |
| 20260905051219 | 57 | 270 | 1.7 | 2.6 | 0.00 | 0.01 | 0.00 | 91 | 1020.3 |
| 20260905050219 | 57 | 248 | 0.9 | 1.7 | 0.00 | 0.01 | 0.00 | 91 | 1019.9 |
| 20260905045218 | 57 | 248 | 1.7 | 1.7 | 0.00 | 0.01 | 0.00 | 91 | 1019.9 |
| 20260905044238 | 57 | 0.0 | 0.0 | 0.00 | 0.01 | 0.00 | 90 | 1019.6 | |
| 20260905043229 | 57 | 0.0 | 0.0 | 0.00 | 0.02 | 0.00 | 90 | 1019.6 | |
| 20260905042229 | 57 | 248 | 0.9 | 1.7 | 0.00 | 0.02 | 0.00 | 90 | 1019.4 |
| 20260905040218 | 57 | 203 | 0.9 | 1.7 | 0.00 | 0.02 | 0.00 | 90 | 1019.3 |
| 20260905035219 | 57 | 270 | 0.9 | 1.7 | 0.00 | 0.02 | 0.00 | 90 | 1019.2 |
| 20260905034218 | 57 | 248 | 0.9 | 1.7 | 0.00 | 0.02 | 0.00 | 90 | 1019.0 |
| 20260905033218 | 57 | 0.0 | 0.9 | 0.00 | 0.02 | 0.00 | 90 | 1019.0 | |
| 20260905032219 | 57 | 0.0 | 0.9 | 0.00 | 0.02 | 0.00 | 90 | 1018.9 | |
| 20260905031219 | 57 | 248 | 1.7 | 1.7 | 0.00 | 0.02 | 0.00 | 90 | 1019.0 |
| 20260905030218 | 57 | 0.0 | 0.9 | 0.00 | 0.02 | 0.00 | 90 | 1018.7 | |
| 20260905025231 | 57 | 0.0 | 0.0 | 0.00 | 0.02 | 0.00 | 89 | 1018.8 | |
| 20260905024218 | 57 | 248 | 1.7 | 1.7 | 0.00 | 0.02 | 0.00 | 89 | 1018.7 |
| 20260905023218 | 57 | 225 | 1.7 | 2.6 | 0.00 | 0.02 | 0.00 | 89 | 1018.7 |
| 20260905022218 | 57 | 0.0 | 0.0 | 0.00 | 0.02 | 0.00 | 88 | 1018.7 | |
| 20260905021301 | 57 | 0.0 | 0.0 | 0.00 | 0.02 | 0.00 | 88 | 1018.6 | |
| 20260905020218 | 58 | 225 | 1.7 | 2.6 | 0.00 | 0.02 | 0.00 | 87 | 1018.5 |
| 20260905015229 | 58 | 225 | 0.9 | 1.7 | 0.00 | 0.02 | 0.00 | 87 | 1018.4 |
| 20260905014417 | 58 | 225 | 0.9 | 1.7 | 0.00 | 0.02 | 0.00 | 87 | 1018.4 |
| 20260905013840 | 58 | 225 | 1.7 | 2.6 | 0.00 | 0.02 | 0.00 | 87 | 1018.4 |
| 20260905012818 | 58 | 248 | 0.9 | 1.7 | 0.00 | 0.02 | 0.00 | 86 | 1018.4 |
| 20260905011829 | 59 | 225 | 0.9 | 1.7 | 0.00 | 0.02 | 0.00 | 86 | 1018.4 |
| 20260905010820 | 59 | 248 | 0.9 | 1.7 | 0.00 | 0.02 | 0.00 | 86 | 1018.3 |
| 20260905005838 | 59 | 0.0 | 0.0 | 0.00 | 0.02 | 0.00 | 86 | 1018.4 | |
| 20260905004840 | 59 | 0.0 | 0.0 | 0.00 | 0.02 | 0.00 | 86 | 1018.4 | |
| 20260905003818 | 59 | 293 | 0.9 | 1.7 | 0.00 | 0.02 | 0.00 | 85 | 1018.3 |
| 20260905002820 | 59 | 248 | 1.7 | 2.6 | 0.00 | 0.02 | 0.00 | 84 | 1018.3 |
| 20260905001909 | 59 | 225 | 1.7 | 2.6 | 0.00 | 0.02 | 0.00 | 84 | 1018.2 |
| 20260905000820 | 59 | 0.0 | 0.0 | 0.00 | 0.02 | 0.00 | 83 | 1018.1 | |
| 20260904235818 | 60 | 0.0 | 0.9 | 0.00 | 0.02 | 0.02 | 82 | 1018.0 | |
| 20260904234900 | 60 | 0.0 | 0.0 | 0.00 | 0.02 | 0.02 | 82 | 1017.8 | |
| 20260904233829 | 60 | 248 | 0.9 | 1.7 | 0.00 | 0.02 | 0.02 | 81 | 1017.8 |
| 20260904232829 | 60 | 225 | 0.9 | 1.7 | 0.00 | 0.02 | 0.02 | 81 | 1017.8 |
| 20260904231819 | 61 | 225 | 0.9 | 1.7 | 0.00 | 0.02 | 0.02 | 80 | 1017.8 |
| 20260904230900 | 61 | 270 | 1.7 | 2.6 | 0.00 | 0.02 | 0.02 | 80 | 1017.8 |
| 20260904230015 | 61 | 248 | 1.7 | 5.2 | 0.00 | 0.02 | 0.02 | 80 | 1017.8 |
| 20260904225218 | 61 | 248 | 1.7 | 2.6 | 0.00 | 0.02 | 0.02 | 80 | 1017.8 |
| 20260904224218 | 61 | 270 | 0.9 | 2.6 | 0.00 | 0.02 | 0.02 | 79 | 1017.9 |
| 20260904223218 | 61 | 0.0 | 1.7 | 0.00 | 0.02 | 0.02 | 79 | 1017.8 | |
| 20260904222218 | 61 | 248 | 0.9 | 1.7 | 0.00 | 0.02 | 0.02 | 78 | 1017.7 |
| 20260904221218 | 62 | 270 | 0.9 | 1.7 | 0.00 | 0.02 | 0.02 | 78 | 1017.7 |
| 20260904220218 | 62 | 0.0 | 0.9 | 0.00 | 0.02 | 0.02 | 78 | 1017.5 | |
| 20260904215218 | 62 | 270 | 1.7 | 2.6 | 0.00 | 0.02 | 0.02 | 77 | 1017.6 |
| 20260904214249 | 62 | 225 | 0.9 | 2.6 | 0.00 | 0.02 | 0.02 | 77 | 1017.6 |
| 20260904213218 | 63 | 293 | 0.9 | 1.7 | 0.00 | 0.02 | 0.02 | 76 | 1017.6 |
| 20260904212218 | 64 | 0.0 | 0.0 | 0.00 | 0.02 | 0.02 | 75 | 1017.4 | |
| 20260904211249 | 64 | 0.0 | 0.0 | 0.00 | 0.02 | 0.02 | 75 | 1017.2 | |
| 20260904210249 | 65 | 0.0 | 0.0 | 0.00 | 0.02 | 0.02 | 73 | 1017.4 | |
| 20260904205231 | 65 | 0.0 | 0.0 | 0.00 | 0.02 | 0.02 | 73 | 1017.2 | |
| 20260904204218 | 65 | 0.0 | 1.7 | 0.00 | 0.02 | 0.02 | 72 | 1017.0 | |
| 20260904203218 | 65 | 0.0 | 1.7 | 0.00 | 0.02 | 0.02 | 72 | 1016.8 |